| time (UTC) | temp C | wind direction | speed KPH | gust KPH | rain 1hr cm | rain 24hr cm | rain mn cm | humidity % | barometer mb |
| 20260507092424 | 5 | 237 | 0.0 | 1.6 | 0.00 | 0.00 | 0.00 | 88 | 1021.7 |
| 20260507091923 | 5 | 264 | 0.0 | 3.2 | 0.00 | 0.00 | 0.00 | 88 | 1022.0 |
| 20260507091425 | 5 | 216 | 0.0 | 1.6 | 0.00 | 0.00 | 0.00 | 87 | 1021.7 |
| 20260507090925 | 5 | 224 | 0.0 | 1.6 | 0.00 | 0.00 | 0.00 | 86 | 1021.7 |
| 20260507090424 | 5 | 217 | 0.0 | 1.6 | 0.00 | 0.00 | 0.00 | 85 | 1021.7 |
| 20260507085923 | 5 | 212 | 0.0 | 0.0 | 0.00 | 0.00 | 0.00 | 85 | 1021.7 |
| 20260507085424 | 4 | 157 | 3.2 | 3.2 | 0.00 | 0.00 | 0.00 | 87 | 1021.7 |
| 20260507084924 | 4 | 157 | 0.0 | 0.0 | 0.00 | 0.00 | 0.00 | 86 | 1021.7 |
| 20260507084424 | 5 | 309 | 0.0 | 0.0 | 0.00 | 0.00 | 0.00 | 86 | 1021.7 |
| 20260507083924 | 5 | 309 | 0.0 | 0.0 | 0.00 | 0.00 | 0.00 | 86 | 1021.3 |
| 20260507083423 | 5 | 309 | 0.0 | 0.0 | 0.00 | 0.00 | 0.00 | 85 | 1021.7 |
| 20260507082923 | 5 | 309 | 0.0 | 0.0 | 0.00 | 0.00 | 0.00 | 85 | 1021.7 |
| 20260507082423 | 5 | 231 | 0.0 | 0.0 | 0.00 | 0.00 | 0.00 | 84 | 1022.0 |
| 20260507081926 | 5 | 217 | 0.0 | 0.0 | 0.00 | 0.00 | 0.00 | 81 | 1021.7 |
| 20260507081424 | 5 | 44 | 0.0 | 0.0 | 0.00 | 0.00 | 0.00 | 77 | 1021.3 |
| 20260507080925 | 5 | 44 | 0.0 | 0.0 | 0.00 | 0.00 | 0.00 | 77 | 1021.3 |
| 20260507080424 | 5 | 40 | 0.0 | 1.6 | 0.00 | 0.00 | 0.00 | 78 | 1021.3 |
| 20260507075924 | 5 | 235 | 0.0 | 0.0 | 0.00 | 0.00 | 0.00 | 78 | 1021.3 |
| 20260507075422 | 5 | 235 | 0.0 | 0.0 | 0.00 | 0.00 | 0.00 | 78 | 1021.3 |
| 20260507074923 | 5 | 129 | 0.0 | 0.0 | 0.00 | 0.00 | 0.00 | 77 | 1021.7 |
| 20260507074422 | 6 | 103 | 0.0 | 1.6 | 0.00 | 0.00 | 0.00 | 76 | 1021.7 |
| 20260507073922 | 5 | 31 | 1.6 | 1.6 | 0.00 | 0.00 | 0.00 | 72 | 1021.7 |
| 20260507073424 | 6 | 332 | 0.0 | 0.0 | 0.00 | 0.00 | 0.00 | 76 | 1021.7 |
| 20260507072924 | 6 | 121 | 0.0 | 0.0 | 0.00 | 0.00 | 0.00 | 76 | 1021.3 |
| 20260507072424 | 5 | 119 | 0.0 | 1.6 | 0.00 | 0.00 | 0.00 | 79 | 1021.7 |
| 20260507071924 | 5 | 124 | 0.0 | 0.0 | 0.00 | 0.00 | 0.00 | 77 | 1022.0 |
| 20260507071423 | 5 | 50 | 0.0 | 0.0 | 0.00 | 0.00 | 0.00 | 75 | 1021.7 |
| 20260507070922 | 6 | 50 | 0.0 | 0.0 | 0.00 | 0.00 | 0.00 | 77 | 1022.0 |
| 20260507070422 | 6 | 119 | 0.0 | 0.0 | 0.00 | 0.00 | 0.00 | 77 | 1022.0 |
| 20260507065924 | 6 | 107 | 0.0 | 1.6 | 0.00 | 0.00 | 0.00 | 78 | 1022.0 |
| 20260507065425 | 5 | 89 | 0.0 | 1.6 | 0.00 | 0.00 | 0.00 | 78 | 1022.0 |
| 20260507064924 | 5 | 129 | 0.0 | 0.0 | 0.00 | 0.00 | 0.00 | 78 | 1022.4 |
| 20260507064424 | 6 | 129 | 0.0 | 0.0 | 0.00 | 0.00 | 0.00 | 76 | 1022.0 |
| 20260507063926 | 6 | 129 | 0.0 | 0.0 | 0.00 | 0.00 | 0.00 | 77 | 1022.0 |
| 20260507063423 | 6 | 119 | 0.0 | 1.6 | 0.00 | 0.00 | 0.00 | 76 | 1022.0 |
| 20260507062922 | 6 | 103 | 0.0 | 0.0 | 0.00 | 0.00 | 0.00 | 75 | 1022.0 |
| 20260507062423 | 6 | 60 | 0.0 | 1.6 | 0.00 | 0.00 | 0.00 | 74 | 1021.7 |
| 20260507061924 | 6 | 49 | 0.0 | 1.6 | 0.00 | 0.00 | 0.00 | 73 | 1022.0 |
| 20260507061424 | 6 | 44 | 0.0 | 0.0 | 0.00 | 0.00 | 0.00 | 73 | 1021.7 |
| 20260507060923 | 6 | 69 | 0.0 | 0.0 | 0.00 | 0.00 | 0.00 | 73 | 1021.7 |
| 20260507060423 | 7 | 69 | 0.0 | 0.0 | 0.00 | 0.00 | 0.00 | 71 | 1021.7 |
| 20260507055925 | 7 | 34 | 0.0 | 1.6 | 0.00 | 0.00 | 0.00 | 70 | 1021.7 |
| 20260507055422 | 7 | 113 | 0.0 | 3.2 | 0.00 | 0.00 | 0.00 | 72 | 1021.3 |
| 20260507054922 | 7 | 106 | 1.6 | 3.2 | 0.00 | 0.00 | 0.00 | 72 | 1022.0 |
| 20260507054424 | 7 | 125 | 3.2 | 3.2 | 0.00 | 0.00 | 0.00 | 70 | 1021.7 |
| 20260507053922 | 7 | 123 | 0.0 | 1.6 | 0.00 | 0.00 | 0.00 | 68 | 1022.0 |
| 20260507053424 | 7 | 142 | 0.0 | 0.0 | 0.00 | 0.00 | 0.00 | 69 | 1021.7 |
| 20260507052923 | 7 | 119 | 3.2 | 3.2 | 0.00 | 0.00 | 0.00 | 72 | 1021.7 |
| 20260507052422 | 7 | 129 | 1.6 | 3.2 | 0.00 | 0.00 | 0.00 | 72 | 1022.0 |
| 20260507051923 | 7 | 89 | 0.0 | 0.0 | 0.00 | 0.00 | 0.00 | 71 | 1021.7 |
| 20260507051423 | 7 | 117 | 0.0 | 0.0 | 0.00 | 0.00 | 0.00 | 70 | 1021.7 |
| 20260507050923 | 7 | 37 | 0.0 | 0.0 | 0.00 | 0.00 | 0.00 | 68 | 1021.3 |
| 20260507050424 | 8 | 135 | 0.0 | 0.0 | 0.00 | 0.00 | 0.00 | 68 | 1021.3 |
| 20260507045922 | 8 | 5 | 0.0 | 1.6 | 0.00 | 0.00 | 0.05 | 67 | 1021.7 |
| 20260507045422 | 8 | 350 | 0.0 | 3.2 | 0.00 | 0.00 | 0.05 | 68 | 1021.7 |
| 20260507044924 | 8 | 16 | 1.6 | 3.2 | 0.00 | 0.00 | 0.05 | 67 | 1021.3 |
| 20260507044422 | 8 | 135 | 0.0 | 1.6 | 0.00 | 0.00 | 0.05 | 68 | 1021.3 |
| 20260507043923 | 8 | 340 | 0.0 | 3.2 | 0.00 | 0.00 | 0.05 | 68 | 1021.3 |
| 20260507043423 | 8 | 11 | 0.0 | 3.2 | 0.00 | 0.00 | 0.05 | 67 | 1021.3 |
| 20260507042923 | 8 | 30 | 0.0 | 3.2 | 0.00 | 0.00 | 0.05 | 66 | 1021.3 |
| 20260507042424 | 8 | 129 | 0.0 | 1.6 | 0.00 | 0.00 | 0.05 | 67 | 1021.3 |
| 20260507041923 | 8 | 19 | 3.2 | 3.2 | 0.00 | 0.00 | 0.05 | 65 | 1021.3 |
| 20260507041422 | 8 | 13 | 3.2 | 3.2 | 0.00 | 0.00 | 0.05 | 65 | 1021.3 |
| 20260507040923 | 8 | 326 | 0.0 | 3.2 | 0.00 | 0.00 | 0.05 | 65 | 1021.3 |
| 20260507040424 | 8 | 352 | 0.0 | 3.2 | 0.00 | 0.00 | 0.05 | 65 | 1021.3 |
| 20260507035922 | 8 | 339 | 1.6 | 3.2 | 0.00 | 0.00 | 0.05 | 65 | 1021.3 |
| 20260507035424 | 8 | 22 | 0.0 | 1.6 | 0.00 | 0.00 | 0.05 | 65 | 1021.0 |
| 20260507034923 | 8 | 29 | 1.6 | 3.2 | 0.00 | 0.00 | 0.05 | 65 | 1021.0 |
| 20260507034422 | 8 | 8 | 1.6 | 3.2 | 0.00 | 0.00 | 0.05 | 66 | 1021.0 |
| 20260507033922 | 8 | 348 | 3.2 | 4.8 | 0.00 | 0.00 | 0.05 | 65 | 1021.0 |
| 20260507033423 | 8 | 5 | 1.6 | 3.2 | 0.00 | 0.00 | 0.05 | 66 | 1021.0 |
| 20260507032923 | 8 | 332 | 1.6 | 3.2 | 0.00 | 0.00 | 0.05 | 66 | 1021.0 |
| 20260507032422 | 8 | 0 | 1.6 | 3.2 | 0.00 | 0.00 | 0.05 | 66 | 1021.0 |
| 20260507031923 | 8 | 6 | 0.0 | 3.2 | 0.00 | 0.00 | 0.05 | 65 | 1021.0 |
| 20260507031426 | 9 | 346 | 1.6 | 1.6 | 0.00 | 0.00 | 0.05 | 65 | 1021.0 |
| 20260507030924 | 9 | 355 | 1.6 | 3.2 | 0.00 | 0.00 | 0.05 | 66 | 1020.7 |
| 20260507030422 | 9 | 329 | 1.6 | 3.2 | 0.00 | 0.00 | 0.05 | 65 | 1021.0 |
| 20260507025923 | 9 | 357 | 1.6 | 3.2 | 0.00 | 0.00 | 0.05 | 66 | 1021.0 |
| 20260507025423 | 9 | 339 | 3.2 | 3.2 | 0.00 | 0.00 | 0.05 | 65 | 1021.0 |
| 20260507024922 | 9 | 351 | 3.2 | 4.8 | 0.00 | 0.00 | 0.05 | 65 | 1021.0 |
| 20260507024422 | 10 | 332 | 3.2 | 4.8 | 0.00 | 0.00 | 0.05 | 65 | 1021.0 |
| 20260507023923 | 9 | 325 | 1.6 | 3.2 | 0.00 | 0.00 | 0.05 | 65 | 1021.0 |
| 20260507023424 | 10 | 32 | 0.0 | 1.6 | 0.00 | 0.00 | 0.05 | 65 | 1020.7 |
| 20260507022924 | 10 | 44 | 0.0 | 1.6 | 0.00 | 0.00 | 0.05 | 64 | 1020.7 |
| 20260507022424 | 10 | 37 | 0.0 | 1.6 | 0.00 | 0.00 | 0.05 | 64 | 1020.7 |
| 20260507021924 | 10 | 26 | 1.6 | 1.6 | 0.00 | 0.00 | 0.05 | 64 | 1020.3 |
| 20260507021425 | 10 | 6 | 0.0 | 0.0 | 0.00 | 0.00 | 0.05 | 64 | 1020.7 |
| 20260507020927 | 10 | 0 | 0.0 | 3.2 | 0.00 | 0.00 | 0.05 | 64 | 1020.3 |
| 20260507020426 | 10 | 333 | 3.2 | 4.8 | 0.00 | 0.00 | 0.05 | 63 | 1020.0 |
| 20260507015923 | 10 | 334 | 1.6 | 1.6 | 0.00 | 0.00 | 0.05 | 64 | 1020.0 |
| 20260507015424 | 10 | 339 | 0.0 | 3.2 | 0.00 | 0.00 | 0.05 | 63 | 1020.0 |
| 20260507014923 | 11 | 0 | 0.0 | 3.2 | 0.00 | 0.00 | 0.05 | 63 | 1019.6 |
| 20260507014424 | 11 | 332 | 3.2 | 4.8 | 0.00 | 0.00 | 0.05 | 63 | 1019.6 |
| 20260507013922 | 11 | 345 | 0.0 | 3.2 | 0.00 | 0.00 | 0.05 | 63 | 1019.6 |
| 20260507013424 | 11 | 24 | 0.0 | 3.2 | 0.00 | 0.00 | 0.05 | 62 | 1019.6 |
| 20260507012923 | 11 | 9 | 1.6 | 3.2 | 0.00 | 0.00 | 0.05 | 60 | 1019.6 |
| 20260507012424 | 12 | 29 | 0.0 | 3.2 | 0.00 | 0.00 | 0.05 | 58 | 1019.6 |
| 20260507011924 | 12 | 35 | 0.0 | 1.6 | 0.00 | 0.00 | 0.05 | 58 | 1019.3 |
| 20260507011425 | 12 | 60 | 0.0 | 1.6 | 0.00 | 0.00 | 0.05 | 55 | 1019.6 |
| 20260507010924 | 12 | 11 | 0.0 | 1.6 | 0.00 | 0.00 | 0.05 | 58 | 1019.3 |
| 20260507010424 | 13 | 322 | 0.0 | 1.6 | 0.00 | 0.00 | 0.05 | 54 | 1019.0 |
| 20260507005924 | 13 | 296 | 0.0 | 0.0 | 0.00 | 0.00 | 0.05 | 55 | 1019.0 |
| 20260507005423 | 13 | 32 | 0.0 | 1.6 | 0.00 | 0.00 | 0.05 | 54 | 1019.0 |
| 20260507004923 | 14 | 319 | 1.6 | 3.2 | 0.00 | 0.00 | 0.05 | 52 | 1019.0 |
| 20260507004424 | 14 | 341 | 3.2 | 4.8 | 0.00 | 0.00 | 0.05 | 50 | 1019.0 |
| 20260507003922 | 13 | 346 | 3.2 | 4.8 | 0.00 | 0.00 | 0.05 | 51 | 1019.0 |
| 20260507003423 | 13 | 22 | 0.0 | 4.8 | 0.00 | 0.00 | 0.05 | 51 | 1019.0 |
| 20260507002922 | 13 | 335 | 3.2 | 3.2 | 0.00 | 0.00 | 0.05 | 51 | 1018.6 |
| 20260507002423 | 14 | 29 | 1.6 | 4.8 | 0.00 | 0.00 | 0.05 | 48 | 1018.3 |
| 20260507001923 | 14 | 66 | 0.0 | 3.2 | 0.00 | 0.00 | 0.05 | 49 | 1018.6 |
| 20260507001422 | 14 | 338 | 3.2 | 8.0 | 0.00 | 0.00 | 0.05 | 48 | 1018.6 |
| 20260507000925 | 14 | 326 | 3.2 | 14.5 | 0.00 | 0.00 | 0.05 | 47 | 1018.3 |
| 20260507000427 | 14 | 355 | 3.2 | 4.8 | 0.00 | 0.00 | 0.05 | 48 | 1018.3 |
| 20260506235922 | 14 | 351 | 4.8 | 8.0 | 0.00 | 0.00 | 0.05 | 47 | 1017.9 |
| 20260506235424 | 15 | 336 | 3.2 | 14.5 | 0.00 | 0.00 | 0.05 | 45 | 1017.6 |
| 20260506234922 | 15 | 1 | 4.8 | 8.0 | 0.00 | 0.00 | 0.05 | 46 | 1017.9 |
| 20260506234422 | 15 | 17 | 4.8 | 14.5 | 0.00 | 0.00 | 0.05 | 45 | 1017.6 |
| 20260506233922 | 15 | 327 | 9.7 | 9.7 | 0.00 | 0.00 | 0.05 | 46 | 1017.6 |
| 20260506233424 | 15 | 332 | 3.2 | 8.0 | 0.00 | 0.00 | 0.05 | 48 | 1017.6 |
| 20260506232922 | 15 | 316 | 9.7 | 12.9 | 0.00 | 0.00 | 0.05 | 45 | 1017.3 |
| 20260506232424 | 15 | 321 | 8.0 | 11.3 | 0.00 | 0.00 | 0.05 | 47 | 1017.3 |
| 20260506231924 | 15 | 10 | 4.8 | 11.3 | 0.00 | 0.00 | 0.05 | 47 | 1017.6 |
| 20260506231422 | 15 | 328 | 8.0 | 9.7 | 0.00 | 0.00 | 0.05 | 47 | 1017.6 |
| 20260506230923 | 15 | 325 | 3.2 | 9.7 | 0.00 | 0.00 | 0.05 | 47 | 1017.6 |
| 20260506230425 | 15 | 79 | 3.2 | 11.3 | 0.00 | 0.00 | 0.05 | 45 | 1017.6 |
| 20260506225923 | 16 | 297 | 4.8 | 11.3 | 0.00 | 0.00 | 0.05 | 46 | 1017.6 |
| 20260506225422 | 16 | 341 | 9.7 | 12.9 | 0.00 | 0.00 | 0.05 | 46 | 1017.3 |
| 20260506224925 | 16 | 4 | 0.0 | 12.9 | 0.00 | 0.00 | 0.05 | 44 | 1017.3 |
| 20260506224423 | 16 | 208 | 1.6 | 8.0 | 0.00 | 0.00 | 0.05 | 43 | 1017.3 |
| 20260506223923 | 16 | 267 | 0.0 | 11.3 | 0.00 | 0.00 | 0.05 | 45 | 1017.6 |
| 20260506223423 | 16 | 340 | 4.8 | 6.4 | 0.00 | 0.00 | 0.05 | 46 | 1017.6 |
| 20260506222925 | 16 | 0 | 1.6 | 9.7 | 0.00 | 0.00 | 0.05 | 44 | 1017.6 |
| 20260506222423 | 16 | 22 | 1.6 | 11.3 | 0.00 | 0.00 | 0.05 | 43 | 1017.6 |
| 20260506221922 | 16 | 336 | 8.0 | 14.5 | 0.00 | 0.00 | 0.05 | 45 | 1017.6 |
| 20260506221422 | 15 | 61 | 3.2 | 9.7 | 0.00 | 0.00 | 0.05 | 46 | 1017.6 |
| 20260506220923 | 15 | 44 | 1.6 | 14.5 | 0.00 | 0.00 | 0.05 | 46 | 1017.6 |
| 20260506220424 | 15 | 2 | 6.4 | 16.1 | 0.00 | 0.00 | 0.05 | 43 | 1017.9 |
| 20260506215924 | 16 | 359 | 9.7 | 11.3 | 0.00 | 0.00 | 0.05 | 44 | 1017.6 |
| 20260506215422 | 16 | 337 | 4.8 | 14.5 | 0.00 | 0.00 | 0.05 | 43 | 1017.3 |
| 20260506214922 | 16 | 55 | 0.0 | 12.9 | 0.00 | 0.00 | 0.05 | 43 | 1017.3 |
| 20260506214424 | 16 | 355 | 1.6 | 19.3 | 0.00 | 0.00 | 0.05 | 44 | 1017.6 |
| 20260506213923 | 16 | 340 | 12.9 | 17.7 | 0.00 | 0.00 | 0.05 | 43 | 1017.3 |
| 20260506213423 | 16 | 0 | 4.8 | 8.0 | 0.00 | 0.00 | 0.05 | 46 | 1017.6 |
| 20260506212923 | 16 | 338 | 4.8 | 11.3 | 0.00 | 0.00 | 0.05 | 46 | 1017.6 |
| 20260506212422 | 15 | 220 | 6.4 | 8.0 | 0.00 | 0.00 | 0.05 | 47 | 1017.6 |
| 20260506211922 | 15 | 51 | 3.2 | 12.9 | 0.00 | 0.00 | 0.05 | 46 | 1017.6 |
| 20260506211423 | 15 | 329 | 6.4 | 11.3 | 0.00 | 0.00 | 0.05 | 44 | 1017.6 |
| 20260506210924 | 16 | 14 | 1.6 | 12.9 | 0.00 | 0.00 | 0.05 | 46 | 1017.6 |
| 20260506210425 | 15 | 55 | 8.0 | 14.5 | 0.00 | 0.00 | 0.05 | 47 | 1017.6 |
| 20260506205924 | 16 | 330 | 8.0 | 14.5 | 0.00 | 0.00 | 0.05 | 46 | 1017.9 |
| 20260506205422 | 16 | 326 | 12.9 | 12.9 | 0.00 | 0.00 | 0.05 | 46 | 1017.9 |
| 20260506204924 | 16 | 62 | 8.0 | 11.3 | 0.00 | 0.00 | 0.05 | 48 | 1017.9 |
| 20260506204425 | 15 | 302 | 3.2 | 8.0 | 0.00 | 0.00 | 0.05 | 49 | 1018.3 |
| 20260506203923 | 15 | 355 | 6.4 | 16.1 | 0.00 | 0.00 | 0.05 | 47 | 1017.9 |
| 20260506203424 | 15 | 339 | 9.7 | 14.5 | 0.00 | 0.00 | 0.05 | 47 | 1017.9 |
| 20260506202922 | 15 | 127 | 3.2 | 6.4 | 0.00 | 0.00 | 0.05 | 47 | 1017.9 |
| 20260506202424 | 15 | 61 | 4.8 | 12.9 | 0.00 | 0.00 | 0.05 | 50 | 1017.9 |
| 20260506201922 | 15 | 315 | 4.8 | 9.7 | 0.00 | 0.00 | 0.05 | 49 | 1017.9 |
| 20260506201424 | 15 | 336 | 11.3 | 22.5 | 0.00 | 0.00 | 0.05 | 50 | 1018.3 |
| 20260506200923 | 15 | 342 | 6.4 | 9.7 | 0.00 | 0.00 | 0.05 | 47 | 1018.3 |
| 20260506200424 | 15 | 315 | 6.4 | 8.0 | 0.00 | 0.00 | 0.05 | 46 | 1018.6 |
| 20260506195922 | 15 | 28 | 6.4 | 8.0 | 0.00 | 0.00 | 0.05 | 47 | 1018.3 |
| 20260506195424 | 15 | 11 | 4.8 | 12.9 | 0.00 | 0.00 | 0.05 | 47 | 1018.6 |
| 20260506194924 | 16 | 297 | 3.2 | 11.3 | 0.00 | 0.00 | 0.05 | 47 | 1018.6 |
| 20260506194422 | 15 | 53 | 3.2 | 11.3 | 0.00 | 0.00 | 0.05 | 49 | 1019.0 |
| 20260506193924 | 15 | 354 | 4.8 | 8.0 | 0.00 | 0.00 | 0.05 | 54 | 1019.0 |
| 20260506193424 | 15 | 299 | 9.7 | 11.3 | 0.00 | 0.00 | 0.05 | 50 | 1019.0 |
| 20260506192926 | 15 | 343 | 6.4 | 17.7 | 0.00 | 0.00 | 0.05 | 47 | 1019.0 |
| 20260506192423 | 14 | 4 | 8.0 | 9.7 | 0.00 | 0.00 | 0.05 | 51 | 1019.0 |
| 20260506191922 | 15 | 335 | 17.7 | 20.9 | 0.00 | 0.00 | 0.05 | 48 | 1019.0 |
| 20260506191423 | 15 | 2 | 9.7 | 24.1 | 0.00 | 0.00 | 0.05 | 50 | 1019.0 |
| 20260506190923 | 15 | 335 | 3.2 | 16.1 | 0.00 | 0.00 | 0.05 | 54 | 1019.0 |
| 20260506190424 | 14 | 340 | 12.9 | 16.1 | 0.00 | 0.00 | 0.05 | 51 | 1019.3 |
| 20260506185924 | 15 | 330 | 14.5 | 27.4 | 0.00 | 0.00 | 0.05 | 49 | 1019.0 |
| 20260506185424 | 15 | 293 | 4.8 | 8.0 | 0.00 | 0.00 | 0.05 | 53 | 1019.3 |
| 20260506184925 | 14 | 24 | 4.8 | 11.3 | 0.00 | 0.00 | 0.05 | 50 | 1019.3 |
| 20260506184424 | 14 | 355 | 4.8 | 8.0 | 0.00 | 0.00 | 0.05 | 51 | 1019.6 |
| 20260506183924 | 15 | 338 | 11.3 | 16.1 | 0.00 | 0.00 | 0.05 | 52 | 1019.3 |
| 20260506183425 | 14 | 338 | 3.2 | 6.4 | 0.00 | 0.00 | 0.05 | 53 | 1019.6 |
| 20260506182923 | 13 | 350 | 4.8 | 16.1 | 0.00 | 0.00 | 0.05 | 51 | 1019.6 |
| 20260506182426 | 14 | 34 | 3.2 | 4.8 | 0.00 | 0.00 | 0.05 | 52 | 1020.0 |
| 20260506181924 | 13 | 359 | 9.7 | 20.9 | 0.00 | 0.00 | 0.05 | 50 | 1020.3 |
| 20260506181426 | 14 | 325 | 11.3 | 20.9 | 0.00 | 0.00 | 0.05 | 50 | 1020.3 |
| 20260506180925 | 15 | 351 | 6.4 | 14.5 | 0.00 | 0.00 | 0.05 | 49 | 1020.0 |
| 20260506180424 | 15 | 82 | 3.2 | 9.7 | 0.00 | 0.00 | 0.05 | 50 | 1019.6 |
| 20260506175922 | 14 | 3 | 3.2 | 8.0 | 0.00 | 0.00 | 0.05 | 56 | 1020.0 |
| 20260506175425 | 13 | 59 | 4.8 | 16.1 | 0.00 | 0.00 | 0.05 | 56 | 1020.0 |
| 20260506174923 | 14 | 305 | 8.0 | 16.1 | 0.00 | 0.00 | 0.05 | 50 | 1020.3 |
| 20260506174424 | 13 | 71 | 0.0 | 11.3 | 0.00 | 0.00 | 0.05 | 55 | 1020.3 |
| 20260506173924 | 14 | 310 | 8.0 | 16.1 | 0.00 | 0.00 | 0.05 | 53 | 1020.7 |
| 20260506173425 | 13 | 178 | 1.6 | 8.0 | 0.00 | 0.00 | 0.05 | 54 | 1020.3 |
| 20260506172925 | 13 | 142 | 1.6 | 6.4 | 0.00 | 0.00 | 0.05 | 55 | 1020.7 |
| 20260506172422 | 12 | 344 | 6.4 | 6.4 | 0.00 | 0.00 | 0.05 | 53 | 1020.7 |
| 20260506171924 | 13 | 307 | 6.4 | 9.7 | 0.00 | 0.00 | 0.05 | 54 | 1020.7 |
| 20260506171424 | 13 | 337 | 6.4 | 16.1 | 0.00 | 0.00 | 0.05 | 53 | 1020.7 |
| 20260506170923 | 13 | 307 | 3.2 | 8.0 | 0.00 | 0.00 | 0.05 | 53 | 1020.7 |
| 20260506170426 | 13 | 327 | 9.7 | 14.5 | 0.00 | 0.00 | 0.05 | 55 | 1020.7 |
| 20260506165923 | 12 | 328 | 4.8 | 6.4 | 0.00 | 0.00 | 0.05 | 61 | 1020.7 |
| 20260506165423 | 13 | 310 | 3.2 | 14.5 | 0.00 | 0.00 | 0.05 | 55 | 1020.0 |
| 20260506164925 | 13 | 4 | 8.0 | 8.0 | 0.00 | 0.00 | 0.05 | 56 | 1020.0 |
| 20260506164430 | 13 | 359 | 6.4 | 11.3 | 0.00 | 0.00 | 0.05 | 62 | 1020.0 |
| 20260506163924 | 12 | 353 | 8.0 | 8.0 | 0.00 | 0.00 | 0.05 | 60 | 1020.0 |
| 20260506163424 | 12 | 4 | 3.2 | 8.0 | 0.00 | 0.00 | 0.05 | 58 | 1020.0 |
| 20260506162925 | 12 | 38 | 4.8 | 8.0 | 0.00 | 0.00 | 0.05 | 63 | 1020.0 |
| 20260506162425 | 12 | 290 | 3.2 | 6.4 | 0.00 | 0.00 | 0.05 | 62 | 1019.6 |
| 20260506161924 | 12 | 61 | 4.8 | 8.0 | 0.00 | 0.00 | 0.05 | 64 | 1020.0 |
| 20260506161424 | 12 | 0 | 4.8 | 9.7 | 0.00 | 0.00 | 0.05 | 64 | 1020.0 |
| 20260506160925 | 11 | 262 | 1.6 | 8.0 | 0.00 | 0.00 | 0.05 | 64 | 1020.0 |
| 20260506160426 | 12 | 359 | 3.2 | 9.7 | 0.00 | 0.00 | 0.05 | 62 | 1020.0 |
| 20260506155924 | 12 | 22 | 6.4 | 8.0 | 0.00 | 0.00 | 0.05 | 62 | 1019.6 |
| 20260506155424 | 12 | 75 | 3.2 | 9.7 | 0.00 | 0.00 | 0.05 | 63 | 1020.0 |
| 20260506154925 | 12 | 57 | 4.8 | 8.0 | 0.00 | 0.00 | 0.05 | 65 | 1019.6 |
| 20260506154422 | 12 | 48 | 1.6 | 9.7 | 0.00 | 0.00 | 0.05 | 63 | 1019.6 |
| 20260506153929 | 12 | 73 | 3.2 | 9.7 | 0.00 | 0.00 | 0.05 | 65 | 1019.6 |
| 20260506153427 | 11 | 341 | 1.6 | 9.7 | 0.00 | 0.00 | 0.05 | 64 | 1019.6 |
| 20260506152925 | 11 | 107 | 0.0 | 9.7 | 0.00 | 0.00 | 0.05 | 63 | 1019.6 |
| 20260506152424 | 12 | 18 | 4.8 | 6.4 | 0.00 | 0.00 | 0.05 | 67 | 1019.6 |
| 20260506151924 | 11 | 206 | 6.4 | 12.9 | 0.00 | 0.00 | 0.05 | 65 | 1019.6 |
| 20260506151425 | 11 | 136 | 3.2 | 8.0 | 0.00 | 0.00 | 0.05 | 66 | 1019.6 |
| 20260506150925 | 11 | 172 | 1.6 | 11.3 | 0.00 | 0.00 | 0.05 | 69 | 1019.6 |
| 20260506150424 | 10 | 124 | 1.6 | 9.7 | 0.00 | 0.00 | 0.05 | 74 | 1019.6 |
| 20260506145924 | 10 | 350 | 8.0 | 11.3 | 0.00 | 0.00 | 0.05 | 76 | 1019.6 |
| 20260506144938 | 10 | 23 | 4.8 | 9.7 | 0.00 | 0.00 | 0.05 | 77 | 1019.3 |
| 20260506144425 | 9 | 13 | 0.0 | 4.8 | 0.00 | 0.00 | 0.05 | 79 | 1019.6 |
| 20260506143924 | 8 | 337 | 1.6 | 6.4 | 0.00 | 0.00 | 0.05 | 80 | 1019.6 |
| 20260506143422 | 9 | 153 | 3.2 | 4.8 | 0.00 | 0.00 | 0.05 | 81 | 1020.0 |
| 20260506142924 | 9 | 62 | 0.0 | 3.2 | 0.00 | 0.00 | 0.05 | 81 | 1020.3 |
| 20260506142422 | 8 | 100 | 3.2 | 8.0 | 0.00 | 0.00 | 0.05 | 79 | 1020.3 |
| 20260506141924 | 8 | 86 | 0.0 | 11.3 | 0.00 | 0.00 | 0.05 | 82 | 1020.3 |
| 20260506141425 | 8 | 250 | 3.2 | 8.0 | 0.00 | 0.00 | 0.05 | 85 | 1020.0 |
| 20260506140925 | 8 | 71 | 4.8 | 9.7 | 0.00 | 0.00 | 0.05 | 84 | 1020.0 |
| 20260506140425 | 8 | 145 | 3.2 | 6.4 | 0.00 | 0.00 | 0.05 | 86 | 1020.3 |
| 20260506135924 | 8 | 83 | 0.0 | 6.4 | 0.00 | 0.00 | 0.05 | 84 | 1020.3 |
| 20260506135425 | 8 | 112 | 3.2 | 8.0 | 0.00 | 0.00 | 0.05 | 85 | 1020.3 |
| 20260506134925 | 8 | 105 | 8.0 | 8.0 | 0.00 | 0.00 | 0.05 | 87 | 1020.0 |
| 20260506134425 | 7 | 105 | 3.2 | 8.0 | 0.00 | 0.00 | 0.05 | 85 | 1020.3 |
| 20260506133924 | 8 | 346 | 4.8 | 11.3 | 0.00 | 0.00 | 0.05 | 86 | 1020.0 |
| 20260506133424 | 7 | 46 | 3.2 | 9.7 | 0.00 | 0.00 | 0.05 | 86 | 1020.0 |
| 20260506132925 | 7 | 52 | 3.2 | 8.0 | 0.00 | 0.00 | 0.05 | 88 | 1020.0 |
| 20260506132425 | 7 | 49 | 1.6 | 9.7 | 0.00 | 0.00 | 0.05 | 88 | 1020.3 |
| 20260506131925 | 7 | 84 | 1.6 | 4.8 | 0.00 | 0.00 | 0.05 | 89 | 1020.3 |
| 20260506131424 | 7 | 63 | 1.6 | 4.8 | 0.00 | 0.00 | 0.05 | 90 | 1020.0 |
| 20260506130925 | 7 | 77 | 4.8 | 8.0 | 0.00 | 0.00 | 0.05 | 90 | 1020.3 |
| 20260506130425 | 7 | 151 | 3.2 | 6.4 | 0.00 | 0.00 | 0.05 | 90 | 1020.0 |
| 20260506125922 | 7 | 11 | 0.0 | 8.0 | 0.00 | 0.00 | 0.05 | 92 | 1020.3 |
| 20260506125428 | 7 | 54 | 4.8 | 8.0 | 0.00 | 0.00 | 0.05 | 92 | 1020.3 |
| 20260506124925 | 7 | 46 | 4.8 | 9.7 | 0.00 | 0.00 | 0.05 | 93 | 1020.3 |
| 20260506124424 | 7 | 5 | 0.0 | 4.8 | 0.00 | 0.00 | 0.05 | 93 | 1020.3 |
| 20260506123924 | 7 | 129 | 3.2 | 6.4 | 0.00 | 0.00 | 0.05 | 94 | 1020.7 |
| 20260506123426 | 7 | 302 | 0.0 | 8.0 | 0.00 | 0.00 | 0.05 | 94 | 1020.3 |
| 20260506122924 | 7 | 23 | 3.2 | 14.5 | 0.00 | 0.00 | 0.05 | 95 | 1020.7 |
| 20260506122424 | 7 | 338 | 1.6 | 6.4 | 0.00 | 0.00 | 0.05 | 95 | 1020.7 |
| 20260506121925 | 7 | 16 | 4.8 | 8.0 | 0.00 | 0.00 | 0.05 | 95 | 1020.7 |
| 20260506121424 | 7 | 328 | 8.0 | 9.7 | 0.00 | 0.00 | 0.05 | 96 | 1020.7 |
| 20260506120927 | 7 | 332 | 11.3 | 11.3 | 0.00 | 0.00 | 0.05 | 96 | 1020.3 |
| 20260506120424 | 7 | 333 | 8.0 | 9.7 | 0.00 | 0.00 | 0.05 | 96 | 1020.3 |
| 20260506115922 | 7 | 335 | 4.8 | 11.3 | 0.00 | 0.00 | 0.05 | 96 | 1020.0 |
| 20260506115424 | 7 | 12 | 4.8 | 9.7 | 0.00 | 0.00 | 0.05 | 96 | 1020.0 |
| 20260506114925 | 7 | 316 | 6.4 | 8.0 | 0.00 | 0.00 | 0.05 | 96 | 1020.0 |
| 20260506114425 | 7 | 342 | 4.8 | 8.0 | 0.00 | 0.00 | 0.05 | 96 | 1020.0 |
| 20260506113924 | 7 | 325 | 4.8 | 9.7 | 0.00 | 0.00 | 0.05 | 96 | 1019.6 |
| 20260506113424 | 7 | 333 | 4.8 | 8.0 | 0.00 | 0.00 | 0.05 | 96 | 1019.6 |
| 20260506112924 | 7 | 346 | 6.4 | 11.3 | 0.00 | 0.00 | 0.05 | 96 | 1019.3 |
| 20260506112422 | 7 | 345 | 8.0 | 11.3 | 0.00 | 0.00 | 0.05 | 96 | 1019.6 |
| 20260506111924 | 7 | 329 | 4.8 | 6.4 | 0.00 | 0.00 | 0.05 | 96 | 1019.6 |
| 20260506111424 | 7 | 332 | 3.2 | 9.7 | 0.00 | 0.00 | 0.05 | 95 | 1019.6 |
| 20260506110923 | 7 | 315 | 3.2 | 8.0 | 0.00 | 0.00 | 0.05 | 96 | 1019.3 |
| 20260506110425 | 7 | 5 | 4.8 | 9.7 | 0.00 | 0.00 | 0.05 | 96 | 1019.0 |
| 20260506105927 | 7 | 42 | 4.8 | 8.0 | 0.00 | 0.00 | 0.05 | 96 | 1018.6 |
| 20260506105425 | 7 | 355 | 6.4 | 12.9 | 0.00 | 0.00 | 0.05 | 96 | 1019.0 |
| 20260506104924 | 7 | 6 | 8.0 | 11.3 | 0.00 | 0.00 | 0.05 | 96 | 1019.0 |
| 20260506104423 | 7 | 29 | 8.0 | 14.5 | 0.00 | 0.00 | 0.05 | 96 | 1018.6 |
| 20260506103923 | 7 | 325 | 8.0 | 12.9 | 0.00 | 0.00 | 0.05 | 96 | 1019.0 |
| 20260506103422 | 7 | 336 | 12.9 | 12.9 | 0.00 | 0.00 | 0.05 | 96 | 1018.3 |
| 20260506102925 | 7 | 341 | 6.4 | 11.3 | 0.00 | 0.00 | 0.05 | 97 | 1018.6 |
| 20260506102426 | 7 | 255 | 3.2 | 6.4 | 0.00 | 0.00 | 0.05 | 97 | 1018.3 |
| 20260506101924 | 7 | 117 | 1.6 | 6.4 | 0.00 | 0.00 | 0.05 | 97 | 1018.3 |
| 20260506101424 | 7 | 356 | 3.2 | 4.8 | 0.03 | 0.00 | 0.05 | 96 | 1018.3 |
| 20260506100923 | 7 | 334 | 4.8 | 11.3 | 0.03 | 0.00 | 0.05 | 96 | 1018.3 |
| 20260506100423 | 7 | 49 | 4.8 | 6.4 | 0.05 | 0.00 | 0.05 | 96 | 1018.3 |
| 20260506095923 | 7 | 299 | 0.0 | 8.0 | 0.05 | 0.00 | 0.05 | 96 | 1017.9 |
| 20260506095423 | 7 | 65 | 4.8 | 6.4 | 0.05 | 0.00 | 0.05 | 96 | 1017.9 |
| 20260506094922 | 7 | 334 | 4.8 | 8.0 | 0.05 | 0.00 | 0.05 | 96 | 1018.3 |
| 20260506094423 | 7 | 335 | 6.4 | 9.7 | 0.05 | 0.00 | 0.05 | 96 | 1018.6 |
| 20260506093924 | 7 | 336 | 4.8 | 8.0 | 0.05 | 0.00 | 0.05 | 96 | 1018.6 |
| 20260506093425 | 7 | 297 | 6.4 | 8.0 | 0.05 | 0.00 | 0.05 | 96 | 1018.3 |
| 20260506092924 | 7 | 346 | 8.0 | 14.5 | 0.05 | 0.00 | 0.05 | 96 | 1018.3 |